TimeMST,TemperatureF,Dew PointF,Humidity,Sea Level PressureIn,VisibilityMPH,Wind Direction,Wind SpeedMPH,Gust SpeedMPH,PrecipitationIn,Events,Conditions,WindDirDegrees,DateUTC
12:51 AM,55.0,43.0,64,30.12,10.0,ESE,4.6,-,N/A,,Clear,110,2013-03-11 07:51:00
1:51 AM,54.0,42.1,64,30.12,10.0,SE,4.6,-,N/A,,Clear,140,2013-03-11 08:51:00
2:51 AM,53.1,43.0,69,30.10,10.0,East,5.8,-,N/A,,Clear,90,2013-03-11 09:51:00
3:51 AM,51.1,42.1,71,30.09,10.0,ESE,3.5,-,N/A,,Clear,110,2013-03-11 10:51:00
4:51 AM,51.1,39.9,66,30.10,10.0,East,6.9,-,N/A,,Clear,90,2013-03-11 11:51:00
5:51 AM,50.0,39.9,68,30.12,10.0,Calm,Calm,-,N/A,,Clear,0,2013-03-11 12:51:00
6:51 AM,48.9,39.0,69,30.12,10.0,ESE,3.5,-,N/A,,Clear,120,2013-03-11 13:51:00
7:51 AM,52.0,39.0,61,30.14,10.0,East,3.5,-,N/A,,Clear,90,2013-03-11 14:51:00
8:51 AM,57.0,39.9,53,30.16,10.0,Calm,Calm,-,N/A,,Clear,0,2013-03-11 15:51:00
9:51 AM,60.1,37.0,42,30.15,10.0,Calm,Calm,-,N/A,,Clear,0,2013-03-11 16:51:00
10:51 AM,64.9,33.1,31,30.14,10.0,Variable,5.8,-,N/A,,Partly Cloudy,0,2013-03-11 17:51:00
11:51 AM,68.0,30.9,25,30.12,10.0,Calm,Calm,-,N/A,,Partly Cloudy,0,2013-03-11 18:51:00
12:51 PM,70.0,26.1,19,30.09,10.0,NNE,4.6,-,N/A,,Partly Cloudy,30,2013-03-11 19:51:00
1:51 PM,72.0,28.0,20,30.05,10.0,Variable,3.5,-,N/A,,Partly Cloudy,0,2013-03-11 20:51:00
2:51 PM,73.0,21.9,15,30.03,10.0,Calm,Calm,-,N/A,,Scattered Clouds,0,2013-03-11 21:51:00
3:51 PM,75.0,21.9,14,30.00,10.0,Calm,Calm,-,N/A,,Partly Cloudy,0,2013-03-11 22:51:00
4:51 PM,73.9,21.9,14,29.99,10.0,Variable,4.6,-,N/A,,Partly Cloudy,0,2013-03-11 23:51:00
5:51 PM,73.0,27.0,18,29.98,10.0,WSW,4.6,-,N/A,,Scattered Clouds,240,2013-03-12 00:51:00
6:51 PM,72.0,27.0,19,29.98,10.0,WSW,5.8,-,N/A,,Partly Cloudy,250,2013-03-12 01:51:00
7:51 PM,66.2,35.6,32,30.00,10.0,SW,3.5,-,N/A,,Partly Cloudy,230,2013-03-12 02:51:00
8:51 PM,68.0,30.0,24,29.99,10.0,Variable,3.5,-,N/A,,Clear,0,2013-03-12 03:51:00
9:51 PM,63.0,42.1,46,30.01,10.0,Calm,Calm,-,N/A,,Clear,0,2013-03-12 04:51:00
10:51 PM,64.4,33.8,32,30.04,10.0,Calm,Calm,-,N/A,,Partly Cloudy,0,2013-03-12 05:51:00
11:51 PM,59.0,43.0,55,30.01,10.0,East,3.5,-,N/A,,Clear,80,2013-03-12 06:51:00